21-12-2023, 00:00:01,    239,    2.4,    8.0,   0.00,   0.00, 1009.2,    0.6, -999.0
21-12-2023, 00:00:11,    258,    1.6,    8.0,   0.00,   0.00, 1009.2,    0.4, -999.0
21-12-2023, 00:00:21,    207,    2.7,    7.9,   0.00,   0.00, 1009.2,    0.6, -999.0
21-12-2023, 00:00:31,    216,    0.9,    8.0,   0.00,   0.00, 1009.2,    0.6, -999.0
21-12-2023, 00:00:41,    282,    1.4,    7.9,   0.00,   0.00, 1009.2,    0.6, -999.0
21-12-2023, 00:00:51,    244,    2.0,    8.0,   0.00,   0.00, 1009.2,    0.8, -999.0
21-12-2023, 00:01:01,    187,    3.8,    8.0,   0.00,   0.00, 1009.2,    0.6, -999.0
21-12-2023, 00:01:11,    176,    2.4,    8.0,   0.00,   0.00, 1009.2,    0.6, -999.0
21-12-2023, 00:01:21,    258,    1.0,    8.0,   0.00,   0.00, 1009.2,    0.5, -999.0
21-12-2023, 00:01:31,    258,    0.2,    8.0,   0.00,   0.00, 1009.2,    0.5, -999.0
21-12-2023, 00:01:41,    275,    1.2,    8.0,   0.00,   0.00, 1009.2,    0.5, -999.0
21-12-2023, 00:01:51,    228,    1.0,    8.0,   0.00,   0.00, 1009.3,    0.1, -999.0
21-12-2023, 00:02:01,    242,    0.3,    7.9,   0.00,   0.00, 1009.2,    1.0, -999.0
21-12-2023, 00:02:11,    242,    0.0,    7.9,   0.00,   0.00, 1009.1,    0.5, -999.0
21-12-2023, 00:02:21,    246,    1.1,    8.1,   0.00,   0.00, 1009.2,    0.7, -999.0
21-12-2023, 00:02:31,    245,    0.2,    8.0,   0.00,   0.00, 1009.2,    0.7, -999.0
21-12-2023, 00:02:41,    245,    0.0,    7.9,   0.00,   0.00, 1009.1,    0.5, -999.0
21-12-2023, 00:02:51,    266,    0.7,    8.0,   0.00,   0.00, 1009.1,    0.4, -999.0
21-12-2023, 00:03:01,    248,    3.0,    8.0,   0.00,   0.00, 1009.2,    0.5, -999.0
21-12-2023, 00:03:11,    280,    1.9,    8.0,   0.00,   0.00, 1009.2,    0.7, -999.0
21-12-2023, 00:03:21,    231,    0.2,    8.0,   0.00,   0.00, 1009.2,    0.7, -999.0
21-12-2023, 00:03:31,    232,    0.9,    8.0,   0.00,   0.00, 1009.2,    0.7, -999.0
21-12-2023, 00:03:41,    235,    2.3,    8.0,   0.00,   0.00, 1009.3,    0.5, -999.0
21-12-2023, 00:03:51,    242,    4.3,    8.0,   0.00,   0.00, 1009.2,    0.6, -999.0
21-12-2023, 00:04:01,    245,    3.5,    8.0,   0.00,   0.00, 1009.2,    0.6, -999.0
21-12-2023, 00:04:11,    237,    2.6,    8.0,   0.00,   0.00, 1009.2,    0.4, -999.0
21-12-2023, 00:04:21,    253,    2.1,    8.0,   0.00,   0.00, 1009.2,    0.8, -999.0
21-12-2023, 00:04:31,    264,    4.2,    8.0,   0.00,   0.00, 1009.2,    0.7, -999.0
21-12-2023, 00:04:40,    235,    4.1,    8.1,   0.00,   0.00, 1009.2,    0.6, -999.0
21-12-2023, 00:04:51,    287,    2.8,    8.0,   0.00,   0.00, 1009.2,    0.6, -999.0
21-12-2023, 00:05:01,    227,    3.0,    8.0,   0.00,   0.00, 1009.2,    0.6, -999.0
21-12-2023, 00:05:10,    257,    5.3,    8.1,   0.00,   0.00, 1009.2,    0.6, -999.0
21-12-2023, 00:05:21,    255,    2.5,    8.1,   0.00,   0.00, 1009.2,    0.6, -999.0
21-12-2023, 00:05:31,    222,    1.3,    8.1,   0.00,   0.00, 1009.2,    0.5, -999.0
21-12-2023, 00:05:41,    269,    4.3,    8.1,   0.00,   0.00, 1009.2,    0.7, -999.0
21-12-2023, 00:05:50,    243,    3.7,    8.1,   0.00,   0.00, 1009.2,    0.8, -999.0
21-12-2023, 00:06:01,    282,    5.0,    8.1,   0.00,   0.00, 1009.2,    0.8, -999.0
21-12-2023, 00:06:11,    298,    4.6,    8.1,   0.00,   0.00, 1009.1,    0.5, -999.0
21-12-2023, 00:06:20,    256,    3.2,    8.1,   0.00,   0.00, 1009.2,    0.6, -999.0
21-12-2023, 00:06:30,    262,    5.2,    8.0,   0.00,   0.00, 1009.1,    0.5, -999.0
21-12-2023, 00:06:41,    258,    4.1,    8.0,   0.00,   0.00, 1009.1,    0.3, -999.0
21-12-2023, 00:06:50,    198,    1.4,    8.0,   0.00,   0.00, 1009.0,    0.8, -999.0
21-12-2023, 00:07:00,    242,    3.5,    8.0,   0.00,   0.00, 1009.0,    0.5, -999.0
21-12-2023, 00:07:10,    253,    4.4,    8.1,   0.00,   0.00, 1009.0,    0.6, -999.0
21-12-2023, 00:07:20,    197,    2.9,    8.0,   0.00,   0.00, 1009.0,    0.5, -999.0
21-12-2023, 00:07:30,    198,    0.4,    8.0,   0.00,   0.00, 1009.0,    0.5, -999.0
21-12-2023, 00:07:40,    234,    0.1,    8.0,   0.00,   0.00, 1009.0,    0.8, -999.0
21-12-2023, 00:07:50,    250,    4.7,    8.1,   0.00,   0.00, 1009.0,    0.7, -999.0
21-12-2023, 00:08:00,    236,    4.4,    8.1,   0.00,   0.00, 1009.0,    0.6, -999.0
21-12-2023, 00:08:10,    241,    3.4,    8.1,   0.00,   0.00, 1009.0,    0.4, -999.0
21-12-2023, 00:08:20,    245,    3.7,    8.1,   0.00,   0.00, 1009.0,    0.6, -999.0
21-12-2023, 00:08:30,    279,    3.9,    8.1,   0.00,   0.00, 1009.0,    0.5, -999.0
21-12-2023, 00:08:40,    205,    2.3,    8.1,   0.00,   0.00, 1009.0,    0.4, -999.0
21-12-2023, 00:08:50,    235,    4.3,    8.1,   0.00,   0.00, 1009.0,    0.5, -999.0
21-12-2023, 00:09:00,    244,    2.6,    8.1,   0.00,   0.00, 1009.0,    0.6, -999.0
21-12-2023, 00:09:10,    149,    4.8,    8.1,   0.00,   0.00, 1009.0,    0.7, -999.0
21-12-2023, 00:09:20,    233,    5.3,    8.1,   0.00,   0.00, 1009.0,    0.5, -999.0
21-12-2023, 00:09:30,    227,    4.6,    8.1,   0.00,   0.00, 1009.0,    0.6, -999.0
21-12-2023, 00:09:40,    223,    2.4,    8.1,   0.00,   0.00, 1009.0,    0.9, -999.0
21-12-2023, 00:09:50,    252,    3.5,    8.2,   0.00,   0.00, 1009.0,    0.5, -999.0
21-12-2023, 00:10:00,    252,    3.2,    8.0,   0.00,   0.00, 1009.0,    0.6, -999.0
21-12-2023, 00:10:10,    242,    3.5,    8.1,   0.00,   0.00, 1009.0,    0.6, -999.0
21-12-2023, 00:10:20,    251,    4.5,    8.2,   0.00,   0.00, 1009.0,    0.9, -999.0
21-12-2023, 00:10:30,    247,    3.3,    8.1,   0.00,   0.00, 1008.9,    0.5, -999.0
21-12-2023, 00:10:40,    254,    1.8,    8.1,   0.00,   0.00, 1009.0,    0.5, -999.0
21-12-2023, 00:10:50,    229,    2.1,    8.1,   0.00,   0.00, 1008.9,    0.7, -999.0
21-12-2023, 00:11:00,    227,    2.5,    8.1,   0.00,   0.00, 1008.9,    0.8, -999.0
21-12-2023, 00:11:10,    253,    6.1,    8.1,   0.00,   0.00, 1008.9,    0.6, -999.0
21-12-2023, 00:11:20,    225,    6.0,    8.1,   0.00,   0.00, 1008.9,    0.7, -999.0
21-12-2023, 00:11:30,    235,    2.2,    8.1,   0.00,   0.00, 1008.9,    0.5, -999.0
21-12-2023, 00:11:39,    244,    4.5,    8.2,   0.00,   0.00, 1008.9,    0.7, -999.0
21-12-2023, 00:11:50,    246,    3.3,    8.2,   0.00,   0.00, 1008.9,    0.3, -999.0
21-12-2023, 00:12:00,    226,    1.8,    8.1,   0.00,   0.00, 1008.8,    0.4, -999.0
21-12-2023, 00:12:10,    254,    2.3,    8.2,   0.00,   0.00, 1008.8,    0.6, -999.0
21-12-2023, 00:12:19,    233,    3.1,    8.1,   0.00,   0.00, 1008.9,    0.6, -999.0
21-12-2023, 00:12:30,    239,    4.5,    8.2,   0.00,   0.00, 1008.8,    0.5, -999.0
21-12-2023, 00:12:40,    286,    2.7,    8.2,   0.00,   0.00, 1008.8,    0.6, -999.0
21-12-2023, 00:12:49,    192,    0.8,    8.2,   0.00,   0.00, 1008.8,    0.4, -999.0
21-12-2023, 00:12:59,    286,    1.2,    8.2,   0.00,   0.00, 1008.8,    0.5, -999.0
21-12-2023, 00:13:10,    222,    3.6,    8.2,   0.00,   0.00, 1008.8,    0.5, -999.0
21-12-2023, 00:13:19,    230,    1.7,    8.2,   0.00,   0.00, 1008.8,    0.5, -999.0
21-12-2023, 00:13:29,    219,    2.6,    8.1,   0.00,   0.00, 1008.8,    0.6, -999.0
21-12-2023, 00:13:40,    266,    0.6,    8.2,   0.00,   0.00, 1008.8,    0.5, -999.0
21-12-2023, 00:13:49,    256,    2.5,    8.2,   0.00,   0.00, 1008.8,    0.7, -999.0
21-12-2023, 00:13:59,    251,    1.0,    8.2,   0.00,   0.00, 1008.8,    0.4, -999.0
21-12-2023, 00:14:09,    247,    2.4,    8.2,   0.00,   0.00, 1008.8,    0.6, -999.0
21-12-2023, 00:14:20,    230,    4.0,    8.2,   0.00,   0.00, 1008.8,    0.8, -999.0
21-12-2023, 00:14:29,    225,    1.9,    8.2,   0.00,   0.00, 1008.8,    0.5, -999.0
21-12-2023, 00:14:39,    287,    1.1,    8.2,   0.00,   0.00, 1008.8,    0.7, -999.0
21-12-2023, 00:14:49,    257,    3.7,    8.2,   0.00,   0.00, 1008.8,    0.6, -999.0
21-12-2023, 00:14:59,    247,    1.4,    8.2,   0.00,   0.00, 1008.8,    0.7, -999.0
21-12-2023, 00:15:09,    243,    1.1,    8.1,   0.00,   0.00, 1008.8,    0.7, -999.0
21-12-2023, 00:15:19,    243,    0.8,    8.2,   0.00,   0.00, 1008.8,    0.7, -999.0
21-12-2023, 00:15:29,    237,    3.1,    8.2,   0.00,   0.00, 1008.8,    0.6, -999.0
21-12-2023, 00:15:39,    236,    4.4,    8.2,   0.00,   0.00, 1008.8,    0.9, -999.0
21-12-2023, 00:15:49,    254,    2.0,    8.1,   0.00,   0.00, 1008.8,    1.3, -999.0
21-12-2023, 00:15:59,    274,    1.2,    8.2,   0.00,   0.00, 1008.8,    1.0, -999.0
21-12-2023, 00:16:09,    274,    0.8,    8.2,   0.00,   0.00, 1008.8,    0.6, -999.0
21-12-2023, 00:16:19,    273,    0.4,    8.2,   0.00,   0.00, 1008.7,    0.6, -999.0
21-12-2023, 00:16:29,    272,    0.2,    8.1,   0.00,   0.00, 1008.7,    1.1, -999.0
21-12-2023, 00:16:39,    246,    2.4,    8.1,   0.00,   0.00, 1008.8,    0.3, -999.0
21-12-2023, 00:16:49,    239,    1.5,    8.2,   0.00,   0.00, 1008.8,    0.8, -999.0
21-12-2023, 00:16:59,    260,    3.0,    8.2,   0.00,   0.00, 1008.8,    0.7, -999.0
21-12-2023, 00:17:09,    262,    3.3,    8.2,   0.00,   0.00, 1008.8,    0.8, -999.0
21-12-2023, 00:17:19,    245,    2.1,    8.2,   0.00,   0.00, 1008.8,    0.7, -999.0
21-12-2023, 00:17:29,    283,    1.4,    8.2,   0.00,   0.00, 1008.8,    0.6, -999.0
21-12-2023, 00:17:39,    286,    2.4,    8.2,   0.00,   0.00, 1008.8,    0.5, -999.0
21-12-2023, 00:17:49,    267,    0.7,    8.2,   0.00,   0.00, 1008.8,    0.7, -999.0
21-12-2023, 00:17:59,    228,    2.0,    8.1,   0.00,   0.00, 1008.8,    0.8, -999.0
21-12-2023, 00:18:09,    229,    2.2,    8.1,   0.00,   0.00, 1008.8,    0.5, -999.0
21-12-2023, 00:18:19,    256,    3.8,    8.1,   0.00,   0.00, 1008.8,    0.6, -999.0
21-12-2023, 00:18:29,    240,    3.6,    8.1,   0.00,   0.00, 1008.7,    0.8, -999.0
21-12-2023, 00:18:38,    254,    0.5,    8.1,   0.00,   0.00, 1008.7,    0.7, -999.0
21-12-2023, 00:18:49,    239,    1.7,    8.1,   0.00,   0.00, 1008.7,    0.6, -999.0
21-12-2023, 00:18:59,    186,    1.2,    8.1,   0.00,   0.00, 1008.7,    0.4, -999.0
21-12-2023, 00:19:09,    227,    2.1,    8.2,   0.00,   0.00, 1008.7,    0.6, -999.0
21-12-2023, 00:19:19,    265,    2.9,    8.2,   0.00,   0.00, 1008.7,    0.7, -999.0
21-12-2023, 00:19:29,    237,    1.4,    8.2,   0.00,   0.00, 1008.7,    0.5, -999.0
21-12-2023, 00:19:39,    238,    1.9,    8.2,   0.00,   0.00, 1008.7,    0.5, -999.0
21-12-2023, 00:19:48,    250,    2.9,    8.2,   0.00,   0.00, 1008.7,    0.6, -999.0
21-12-2023, 00:19:59,    243,    3.2,    8.2,   0.00,   0.00, 1008.7,    0.6, -999.0
21-12-2023, 00:20:09,    239,    4.6,    8.2,   0.00,   0.00, 1008.7,    0.8, -999.0
21-12-2023, 00:20:18,    266,    4.4,    8.2,   0.00,   0.00, 1008.6,    0.3, -999.0
21-12-2023, 00:20:28,    254,    2.3,    8.2,   0.00,   0.00, 1008.6,    0.7, -999.0
21-12-2023, 00:20:39,    256,    1.3,    8.2,   0.00,   0.00, 1008.6,    0.9, -999.0
21-12-2023, 00:20:49,    249,    1.9,    8.2,   0.00,   0.00, 1008.7,    0.9, -999.0
21-12-2023, 00:20:58,    274,    2.2,    8.1,   0.00,   0.00, 1008.7,    0.4, -999.0
21-12-2023, 00:21:08,    231,    0.7,    8.2,   0.00,   0.00, 1008.6,    0.6, -999.0
21-12-2023, 00:21:19,    232,    1.1,    8.1,   0.00,   0.00, 1008.6,    0.7, -999.0
21-12-2023, 00:21:28,    205,    1.2,    8.2,   0.00,   0.00, 1008.6,    0.6, -999.0
21-12-2023, 00:21:38,    218,    0.9,    8.2,   0.00,   0.00, 1008.6,    0.7, -999.0
21-12-2023, 00:21:48,    219,    1.0,    8.2,   0.00,   0.00, 1008.6,    0.5, -999.0
21-12-2023, 00:21:58,    262,    2.2,    8.2,   0.00,   0.00, 1008.6,    0.7, -999.0
21-12-2023, 00:22:08,    248,    0.3,    8.2,   0.00,   0.00, 1008.6,    0.9, -999.0
21-12-2023, 00:22:18,    135,    1.2,    8.2,   0.00,   0.00, 1008.6,    0.7, -999.0
21-12-2023, 00:22:28,    255,    0.8,    8.2,   0.00,   0.00, 1008.5,    0.6, -999.0
21-12-2023, 00:22:38,    222,    2.2,    8.2,   0.00,   0.00, 1008.5,    0.9, -999.0
21-12-2023, 00:22:48,    249,    0.9,    8.2,   0.00,   0.00, 1008.5,    0.7, -999.0
21-12-2023, 00:22:58,    216,    1.0,    8.2,   0.00,   0.00, 1008.6,    0.6, -999.0
21-12-2023, 00:23:08,    201,    0.2,    8.1,   0.00,   0.00, 1008.5,    0.2, -999.0
21-12-2023, 00:23:18,    262,    0.3,    8.1,   0.00,   0.00, 1008.5,    0.3, -999.0
21-12-2023, 00:23:28,    229,    2.3,    8.1,   0.00,   0.00, 1008.6,    0.6, -999.0
21-12-2023, 00:23:38,    253,    2.3,    8.2,   0.00,   0.00, 1008.6,    0.6, -999.0
21-12-2023, 00:23:48,    246,    1.5,    8.2,   0.00,   0.00, 1008.6,    0.6, -999.0
21-12-2023, 00:23:58,    206,    0.8,    8.2,   0.00,   0.00, 1008.6,    1.5, -999.0
21-12-2023, 00:24:08,    223,    0.3,    8.2,   0.00,   0.00, 1008.5,    0.7, -999.0
21-12-2023, 00:24:18,    242,    1.0,    8.2,   0.00,   0.00, 1008.6,    1.0, -999.0
21-12-2023, 00:24:28,    234,    0.7,    8.2,   0.00,   0.00, 1008.5,    0.7, -999.0
21-12-2023, 00:24:38,    234,    0.2,    8.1,   0.00,   0.00, 1008.5,    0.8, -999.0
21-12-2023, 00:24:48,    234,    1.0,    8.1,   0.00,   0.00, 1008.6,    0.1, -999.0
21-12-2023, 00:24:58,    234,    0.4,    8.1,   0.00,   0.00, 1008.5,    0.3, -999.0
21-12-2023, 00:25:08,    235,    0.6,    8.1,   0.00,   0.00, 1008.6,    0.7, -999.0
21-12-2023, 00:25:18,    256,    1.5,    8.2,   0.00,   0.00, 1008.6,    0.5, -999.0
21-12-2023, 00:25:28,    214,    0.6,    8.1,   0.00,   0.00, 1008.5,    0.4, -999.0
21-12-2023, 00:25:38,    227,    0.7,    8.1,   0.00,   0.00, 1008.5,    0.3, -999.0
21-12-2023, 00:25:48,    227,    0.0,    8.1,   0.00,   0.00, 1008.4,    0.4, -999.0
21-12-2023, 00:25:58,    228,    0.0,    8.1,   0.00,   0.00, 1008.5,    0.5, -999.0
21-12-2023, 00:26:08,    213,    0.8,    8.1,   0.00,   0.00, 1008.5,    0.6, -999.0
21-12-2023, 00:26:18,    211,    1.5,    8.2,   0.00,   0.00, 1008.6,    0.7, -999.0
21-12-2023, 00:26:28,    255,    0.2,    8.2,   0.00,   0.00, 1008.5,    0.7, -999.0
21-12-2023, 00:26:38,    255,    0.0,    8.1,   0.00,   0.00, 1008.5,    0.4, -999.0
21-12-2023, 00:26:47,    254,    0.3,    8.1,   0.00,   0.00, 1008.5,    0.6, -999.0
21-12-2023, 00:26:58,    239,    0.9,    8.1,   0.00,   0.00, 1008.6,    0.6, -999.0
21-12-2023, 00:27:08,    226,    1.6,    8.2,   0.00,   0.00, 1008.6,    0.6, -999.0
21-12-2023, 00:27:17,    261,    3.6,    8.2,   0.00,   0.00, 1008.6,    0.6, -999.0
21-12-2023, 00:27:27,    230,    1.7,    8.2,   0.00,   0.00, 1008.5,    0.5, -999.0
21-12-2023, 00:27:38,    243,    3.4,    8.2,   0.00,   0.00, 1008.6,    0.7, -999.0
21-12-2023, 00:27:48,    258,    3.1,    8.2,   0.00,   0.00, 1008.6,    0.5, -999.0
21-12-2023, 00:27:57,    226,    2.4,    8.2,   0.00,   0.00, 1008.5,    0.5, -999.0
21-12-2023, 00:28:07,    247,    1.6,    8.2,   0.00,   0.00, 1008.5,    0.7, -999.0
21-12-2023, 00:28:18,    195,    1.8,    8.2,   0.00,   0.00, 1008.5,    0.7, -999.0
21-12-2023, 00:28:27,    242,    2.6,    8.1,   0.00,   0.00, 1008.5,    0.6, -999.0
21-12-2023, 00:28:37,    183,    2.0,    8.2,   0.00,   0.00, 1008.6,    0.4, -999.0
21-12-2023, 00:28:48,    266,    0.2,    8.2,   0.00,   0.00, 1008.5,    0.6, -999.0
21-12-2023, 00:28:57,    209,    2.3,    8.2,   0.00,   0.00, 1008.5,    0.6, -999.0
21-12-2023, 00:29:07,    175,    0.1,    8.2,   0.00,   0.00, 1008.4,    0.6, -999.0
21-12-2023, 00:29:17,    220,    0.9,    8.2,   0.00,   0.00, 1008.5,    0.8, -999.0
21-12-2023, 00:29:27,    273,    2.0,    8.2,   0.00,   0.00, 1008.5,    0.7, -999.0
21-12-2023, 00:29:37,    258,    2.0,    8.2,   0.00,   0.00, 1008.5,    0.7, -999.0
21-12-2023, 00:29:47,    265,    1.1,    8.2,   0.00,   0.00, 1008.5,    0.8, -999.0
21-12-2023, 00:29:57,    260,    0.1,    8.2,   0.00,   0.00, 1008.4,    0.6, -999.0
21-12-2023, 00:30:07,    260,    0.0,    8.2,   0.00,   0.00, 1008.4,    0.6, -999.0
21-12-2023, 00:30:17,    261,    0.0,    8.1,   0.00,   0.00, 1008.4,    0.3, -999.0
21-12-2023, 00:30:27,    257,    0.2,    8.2,   0.00,   0.00, 1008.4,    0.5, -999.0
21-12-2023, 00:30:37,    292,    0.8,    8.2,   0.00,   0.00, 1008.5,    0.8, -999.0
21-12-2023, 00:30:47,    267,    1.9,    8.0,   0.00,   0.00, 1008.5,    0.7, -999.0
21-12-2023, 00:30:57,    265,    1.9,    8.2,   0.00,   0.00, 1008.5,    0.5, -999.0
21-12-2023, 00:31:07,    265,    0.5,    8.2,   0.00,   0.00, 1008.5,    0.7, -999.0
21-12-2023, 00:31:17,    248,    2.2,    8.2,   0.00,   0.00, 1008.5,    0.6, -999.0
21-12-2023, 00:31:27,    231,    1.9,    8.3,   0.00,   0.00, 1008.5,    0.4, -999.0
21-12-2023, 00:31:37,    246,    2.9,    8.2,   0.00,   0.00, 1008.5,    0.7, -999.0
21-12-2023, 00:31:47,    219,    3.2,    8.3,   0.00,   0.00, 1008.5,    0.7, -999.0
21-12-2023, 00:31:57,    244,    2.9,    8.2,   0.00,   0.00, 1008.5,    0.4, -999.0
21-12-2023, 00:32:07,    269,    1.2,    8.2,   0.00,   0.00, 1008.5,    0.6, -999.0
21-12-2023, 00:32:17,    237,    1.1,    8.2,   0.00,   0.00, 1008.5,    0.4, -999.0
21-12-2023, 00:32:27,    237,    0.4,    8.2,   0.00,   0.00, 1008.4,    0.6, -999.0
21-12-2023, 00:32:37,    237,    0.0,    8.2,   0.00,   0.00, 1008.4,    0.4, -999.0
21-12-2023, 00:32:47,    238,    0.0,    8.2,   0.00,   0.00, 1008.4,    0.7, -999.0
21-12-2023, 00:32:57,    238,    0.0,    8.1,   0.00,   0.00, 1008.4,    0.5, -999.0
21-12-2023, 00:33:07,    237,    0.0,    8.1,   0.00,   0.00, 1008.3,    0.4, -999.0
21-12-2023, 00:33:17,    264,    0.7,    8.2,   0.00,   0.00, 1008.4,    0.4, -999.0
21-12-2023, 00:33:27,    257,    1.4,    8.2,   0.00,   0.00, 1008.5,    0.9, -999.0
21-12-2023, 00:33:37,    307,    3.3,    8.2,   0.00,   0.00, 1008.5,    0.5, -999.0
21-12-2023, 00:33:46,    256,    1.8,    8.2,   0.00,   0.00, 1008.5,    0.6, -999.0
21-12-2023, 00:33:57,    239,    3.1,    8.2,   0.00,   0.00, 1008.4,    0.7, -999.0
21-12-2023, 00:34:07,    254,    3.1,    8.2,   0.00,   0.00, 1008.5,    0.6, -999.0
21-12-2023, 00:34:16,    216,    3.2,    8.2,   0.00,   0.00, 1008.5,    0.7, -999.0
21-12-2023, 00:34:27,    244,    4.6,    8.2,   0.00,   0.00, 1008.5,    0.4, -999.0
21-12-2023, 00:34:37,    224,    5.3,    8.3,   0.00,   0.00, 1008.5,    0.3, -999.0
21-12-2023, 00:34:46,    242,    3.8,    8.3,   0.00,   0.00, 1008.5,    0.2, -999.0
21-12-2023, 00:34:56,    239,    3.3,    8.3,   0.00,   0.00, 1008.5,    0.8, -999.0
21-12-2023, 00:35:07,    212,    2.7,    8.2,   0.00,   0.00, 1008.5,    1.3, -999.0
21-12-2023, 00:35:17,    241,    1.1,    8.3,   0.00,   0.00, 1008.5,    0.7, -999.0
21-12-2023, 00:35:26,    241,    1.7,    8.2,   0.00,   0.00, 1008.5,    0.4, -999.0
21-12-2023, 00:35:36,    200,    2.2,    8.3,   0.00,   0.00, 1008.5,    0.4, -999.0
21-12-2023, 00:35:47,    250,    4.2,    8.3,   0.00,   0.00, 1008.5,    0.5, -999.0
21-12-2023, 00:35:56,    221,    3.7,    8.3,   0.00,   0.00, 1008.5,    0.7, -999.0
21-12-2023, 00:36:06,    245,    3.6,    8.3,   0.00,   0.00, 1008.5,    0.6, -999.0
21-12-2023, 00:36:16,    187,    3.8,    8.3,   0.00,   0.00, 1008.5,    0.5, -999.0
21-12-2023, 00:36:26,    223,    3.0,    8.2,   0.00,   0.00, 1008.5,    0.5, -999.0
21-12-2023, 00:36:36,    262,    4.0,    8.3,   0.00,   0.00, 1008.5,    0.3, -999.0
21-12-2023, 00:36:46,    223,    4.0,    8.3,   0.00,   0.00, 1008.5,    0.7, -999.0
21-12-2023, 00:36:56,    215,    1.3,    8.3,   0.00,   0.00, 1008.5,    0.6, -999.0
21-12-2023, 00:37:06,    254,    1.8,    8.3,   0.00,   0.00, 1008.5,    0.6, -999.0
21-12-2023, 00:37:16,    237,    0.9,    8.3,   0.00,   0.00, 1008.5,    0.7, -999.0
21-12-2023, 00:37:26,    234,    1.2,    8.3,   0.00,   0.00, 1008.5,    0.5, -999.0
21-12-2023, 00:37:36,    328,    2.4,    8.2,   0.00,   0.00, 1008.5,    0.5, -999.0
21-12-2023, 00:37:46,    241,    3.4,    8.3,   0.00,   0.00, 1008.5,    0.5, -999.0
21-12-2023, 00:37:56,    251,    1.2,    8.3,   0.00,   0.00, 1008.5,    0.5, -999.0
21-12-2023, 00:38:06,    189,    0.2,    8.2,   0.00,   0.00, 1008.4,    0.3, -999.0
21-12-2023, 00:38:16,    190,    0.1,    8.2,   0.00,   0.00, 1008.4,    0.2, -999.0
21-12-2023, 00:38:26,    192,    0.6,    8.2,   0.00,   0.00, 1008.4,    0.1, -999.0
21-12-2023, 00:38:36,    246,    2.5,    8.2,   0.00,   0.00, 1008.5,    0.6, -999.0
21-12-2023, 00:38:46,    263,    2.4,    8.3,   0.00,   0.00, 1008.5,    0.3, -999.0
21-12-2023, 00:38:56,    260,    0.7,    8.2,   0.00,   0.00, 1008.4,    0.6, -999.0
21-12-2023, 00:39:06,    259,    0.4,    8.2,   0.00,   0.00, 1008.4,    0.6, -999.0
21-12-2023, 00:39:16,    259,    0.0,    8.1,   0.00,   0.00, 1008.3,    0.6, -999.0
21-12-2023, 00:39:26,    259,    0.0,    8.2,   0.00,   0.00, 1008.3,    0.4, -999.0
21-12-2023, 00:39:36,    258,    0.2,    8.2,   0.00,   0.00, 1008.4,    0.6, -999.0
21-12-2023, 00:39:46,    259,    0.9,    8.2,   0.00,   0.00, 1008.4,    0.5, -999.0
21-12-2023, 00:39:56,    259,    0.7,    8.3,   0.00,   0.00, 1008.4,    1.0, -999.0
21-12-2023, 00:40:06,    258,    0.2,    8.2,   0.00,   0.00, 1008.4,    0.5, -999.0
21-12-2023, 00:40:16,    197,    0.1,    8.2,   0.00,   0.00, 1008.4,    0.7, -999.0
21-12-2023, 00:40:26,    226,    0.9,    8.2,   0.00,   0.00, 1008.4,    0.6, -999.0
21-12-2023, 00:40:36,    227,    0.2,    8.2,   0.00,   0.00, 1008.4,    0.6, -999.0
21-12-2023, 00:40:46,    228,    0.6,    8.2,   0.00,   0.00, 1008.4,    0.6, -999.0
21-12-2023, 00:40:56,    233,    0.8,    8.2,   0.00,   0.00, 1008.4,    0.5, -999.0
21-12-2023, 00:41:06,    195,    1.1,    8.3,   0.00,   0.00, 1008.4,    0.5, -999.0
21-12-2023, 00:41:15,    223,    0.4,    8.2,   0.00,   0.00, 1008.4,    0.6, -999.0
21-12-2023, 00:41:26,    224,    0.2,    8.2,   0.00,   0.00, 1008.4,    0.4, -999.0
21-12-2023, 00:41:36,    220,    0.1,    8.2,   0.00,   0.00, 1008.3,    0.5, -999.0
21-12-2023, 00:41:46,    220,    0.0,    8.2,   0.00,   0.00, 1008.3,    0.5, -999.0
21-12-2023, 00:41:55,    314,    0.1,    8.1,   0.00,   0.00, 1008.3,    0.7, -999.0
21-12-2023, 00:42:06,    238,    0.4,    8.2,   0.00,   0.00, 1008.4,    0.4, -999.0
21-12-2023, 00:42:16,    262,    1.1,    8.2,   0.00,   0.00, 1008.4,    0.7, -999.0
21-12-2023, 00:42:25,    232,    1.4,    8.3,   0.00,   0.00, 1008.4,    0.7, -999.0
21-12-2023, 00:42:35,    249,    0.9,    8.3,   0.00,   0.00, 1008.4,    0.5, -999.0
21-12-2023, 00:42:46,    251,    1.3,    8.3,   0.00,   0.00, 1008.5,    0.6, -999.0
21-12-2023, 00:42:55,    232,    3.9,    8.3,   0.00,   0.00, 1008.4,    0.6, -999.0
21-12-2023, 00:43:05,    239,    2.5,    8.2,   0.00,   0.00, 1008.4,    0.8, -999.0
21-12-2023, 00:43:15,    302,    1.7,    8.2,   0.00,   0.00, 1008.5,    0.7, -999.0
21-12-2023, 00:43:26,    266,    2.9,    8.3,   0.00,   0.00, 1008.4,    0.2, -999.0
21-12-2023, 00:43:35,    239,    0.4,    8.2,   0.00,   0.00, 1008.4,    0.5, -999.0
21-12-2023, 00:43:45,    239,    0.0,    8.2,   0.00,   0.00, 1008.3,    0.4, -999.0
21-12-2023, 00:43:55,    239,    0.3,    8.2,   0.00,   0.00, 1008.4,    0.6, -999.0
21-12-2023, 00:44:05,    247,    1.0,    8.3,   0.00,   0.00, 1008.4,    0.8, -999.0
21-12-2023, 00:44:15,    255,    2.4,    8.3,   0.00,   0.00, 1008.4,    0.3, -999.0
21-12-2023, 00:44:25,    281,    2.0,    8.2,   0.00,   0.00, 1008.4,    1.0, -999.0
21-12-2023, 00:44:35,    217,    1.4,    8.3,   0.00,   0.00, 1008.4,    0.8, -999.0
21-12-2023, 00:44:45,    216,    0.2,    8.2,   0.00,   0.00, 1008.3,    0.5, -999.0
21-12-2023, 00:44:55,    210,    2.0,    8.3,   0.00,   0.00, 1008.3,    0.3, -999.0
21-12-2023, 00:45:05,    234,    2.8,    8.3,   0.00,   0.00, 1008.4,    0.6, -999.0
21-12-2023, 00:45:15,    243,    2.3,    8.3,   0.00,   0.00, 1008.4,    0.2, -999.0
21-12-2023, 00:45:25,    244,    0.7,    8.3,   0.00,   0.00, 1008.4,    0.2, -999.0
21-12-2023, 00:45:35,    258,    0.2,    8.2,   0.00,   0.00, 1008.3,    0.3, -999.0
21-12-2023, 00:45:45,    258,    0.0,    8.2,   0.00,   0.00, 1008.2,    0.7, -999.0
21-12-2023, 00:45:55,    258,    0.0,    8.2,   0.00,   0.00, 1008.2,    0.5, -999.0
21-12-2023, 00:46:05,    238,    0.5,    8.3,   0.00,   0.00, 1008.3,    0.4, -999.0
21-12-2023, 00:46:15,    191,    0.1,    8.2,   0.00,   0.00, 1008.2,    0.8, -999.0
21-12-2023, 00:46:25,    265,    0.2,    8.2,   0.00,   0.00, 1008.2,    0.3, -999.0
21-12-2023, 00:46:35,    327,    0.9,    8.2,   0.00,   0.00, 1008.3,    0.8, -999.0
21-12-2023, 00:46:45,    280,    1.6,    8.2,   0.00,   0.00, 1008.3,    0.6, -999.0